DW9313 Weather Reports


Display with metric or nautical units.
time (UTC)temp
F
wind
direction
speed
MPH
gust
MPH
rain 1hr
in
rain 24hr
in
rain mn
in
humidity
%
barometer
mb
20170626102825 57 335 8.0 13.0 0.00 0.00 0.00 74 1015.1
20170626102329 57 335 5.0 12.0 0.00 0.00 0.00 74 1015.1
20170626101830 57 335 9.0 14.0 0.00 0.00 0.00 74 1015.1
20170626101325 57 335 6.0 14.0 0.00 0.00 0.00 74 1015.1
20170626100829 57 335 7.0 14.0 0.00 0.00 0.00 74 1015.1
20170626100330 57 335 8.0 13.0 0.00 0.00 0.00 74 1015.1
20170626095827 57 335 7.0 13.0 0.00 0.00 0.00 74 1015.1
20170626095328 57 335 6.0 13.0 0.00 0.00 0.00 74 1015.1
20170626094830 57 335 7.0 13.0 0.00 0.00 0.00 74 1015.1
20170626094328 57 335 7.0 13.0 0.00 0.00 0.00 74 1015.1
20170626093828 57 335 9.0 14.0 0.00 0.00 0.00 74 1015.1
20170626093330 57 335 7.0 14.0 0.00 0.00 0.00 74 1015.1
20170626092828 57 335 8.0 14.0 0.00 0.00 0.00 74 1015.1
20170626092327 57 335 9.0 14.0 0.00 0.00 0.00 74 1015.1
20170626091830 57 335 7.0 13.0 0.00 0.00 0.00 74 1015.1
20170626091330 57 335 7.0 12.0 0.00 0.00 0.00 74 1015.1
20170626090830 57 335 7.0 14.0 0.00 0.00 0.00 74 1015.1
20170626090328 57 335 3.0 13.0 0.00 0.00 0.00 74 1015.1
20170626085829 57 335 5.0 14.0 0.00 0.00 0.00 74 1015.1
20170626085330 57 335 6.0 12.0 0.00 0.00 0.00 74 1015.1
20170626084830 57 335 6.0 12.0 0.00 0.00 0.00 74 1015.1
20170626084329 57 335 6.0 12.0 0.00 0.00 0.00 74 1015.1
20170626083826 57 335 3.0 13.0 0.00 0.00 0.00 74 1015.1
20170626083332 57 335 6.0 13.0 0.00 0.00 0.00 74 1015.1
20170626082829 57 335 5.0 12.0 0.00 0.00 0.00 74 1015.1
20170626082331 57 335 5.0 9.0 0.00 0.00 0.00 74 1015.1
20170626081831 57 335 3.0 9.0 0.00 0.00 0.00 74 1015.1
20170626081328 57 335 3.0 8.0 0.00 0.00 0.00 74 1015.1
20170626080829 57 335 4.0 8.0 0.00 0.00 0.00 74 1015.1
20170626080331 57 335 5.0 8.0 0.00 0.00 0.00 74 1015.1
20170626075829 57 335 3.0 8.0 0.00 0.00 0.00 74 1015.1
20170626075329 57 335 5.0 8.0 0.00 0.00 0.00 74 1015.1
20170626074830 57 335 2.0 8.0 0.00 0.00 0.00 74 1015.1
20170626074331 57 335 3.0 8.0 0.00 0.00 0.00 74 1015.1
20170626073828 57 335 3.0 7.0 0.00 0.00 0.00 74 1015.1
20170626073329 57 335 3.0 8.0 0.00 0.00 0.00 74 1015.1
20170626072830 57 335 3.0 8.0 0.00 0.00 0.00 74 1015.1
20170626072327 57 335 3.0 6.0 0.00 0.00 0.00 74 1015.1
20170626071833 57 335 3.0 7.0 0.00 0.00 0.00 74 1015.1
20170626071330 57 335 3.0 7.0 0.00 0.00 0.00 74 1015.1
20170626070830 57 335 1.0 6.0 0.00 0.00 0.00 74 1015.1
20170626070332 57 335 1.0 6.0 0.00 0.00 0.00 74 1015.1
20170626065827 57 335 3.0 6.0 0.00 0.00 0.00 74 1015.1
20170626065330 57 335 1.0 6.0 0.00 0.00 0.00 74 1015.1
20170626064828 57 335 0.0 2.0 0.00 0.00 0.00 74 1015.1
20170626064327 57 335 0.0 0.0 0.00 0.00 0.00 74 1015.1
20170626063830 57 335 0.0 1.0 0.00 0.00 0.00 74 1015.1
20170626063332 57 335 0.0 0.0 0.00 0.00 0.00 74 1015.1
20170626062831 57 335 0.0 0.0 0.00 0.00 0.00 74 1015.1
20170626062328 57 335 0.0 2.0 0.00 0.00 0.00 74 1015.1
20170626061831 57 335 1.0 2.0 0.00 0.00 0.00 74 1015.1
20170626061330 57 335 0.0 2.0 0.00 0.00 0.00 74 1015.1
20170626060831 57 335 0.0 0.0 0.00 0.00 0.00 74 1015.1
20170626060331 57 335 0.0 2.0 0.00 0.00 0.00 74 1015.1
20170626055831 57 335 0.0 2.0 0.00 0.00 0.00 74 1015.1
20170626055330 57 335 0.0 2.0 0.00 0.00 0.00 74 1015.1
20170626054833 57 335 1.0 2.0 0.00 0.00 0.00 74 1015.1
20170626054330 57 335 2.0 5.0 0.00 0.00 0.00 74 1015.1
20170626053827 57 335 0.0 2.0 0.00 0.00 0.00 74 1015.1
20170626053333 57 335 0.0 2.0 0.00 0.00 0.00 74 1015.1
20170626052829 57 335 1.0 2.0 0.00 0.00 0.00 74 1015.1
20170626052331 57 335 0.0 2.0 0.00 0.00 0.00 74 1015.1
20170626051832 57 335 1.0 5.0 0.00 0.00 0.00 74 1015.1
20170626051328 57 335 1.0 2.0 0.00 0.00 0.00 74 1015.1
20170626050832 57 335 0.0 2.0 0.00 0.00 0.00 74 1015.1
20170626050330 57 335 1.0 5.0 0.00 0.00 0.00 74 1015.1
20170626045828 57 335 1.0 5.0 0.00 0.00 0.00 74 1015.1
20170626045331 57 335 2.0 6.0 0.00 0.00 0.00 74 1015.1
20170626044833 57 335 0.0 2.0 0.00 0.00 0.00 74 1015.1
20170626044330 57 335 1.0 6.0 0.00 0.00 0.00 74 1015.1
20170626043831 57 335 1.0 6.0 0.00 0.00 0.00 74 1015.1
20170626043333 57 335 2.0 6.0 0.00 0.00 0.00 74 1015.1
20170626042833 57 335 2.0 7.0 0.00 0.00 0.00 74 1015.1
20170626042331 57 335 2.0 6.0 0.00 0.00 0.00 74 1015.1
20170626041832 57 335 2.0 6.0 0.00 0.00 0.00 74 1015.1
20170626041330 57 335 1.0 5.0 0.00 0.00 0.00 74 1015.1
20170626040830 57 335 3.0 6.0 0.00 0.00 0.00 74 1015.1
20170626040331 57 335 2.0 6.0 0.00 0.00 0.00 74 1015.1
20170626035830 57 335 2.0 6.0 0.00 0.00 0.00 74 1015.1
20170626035332 57 335 2.0 6.0 0.00 0.00 0.00 74 1015.1
20170626034833 57 335 2.0 6.0 0.00 0.00 0.00 74 1015.1
20170626034332 57 335 3.0 7.0 0.00 0.00 0.00 74 1015.1
20170626033832 57 335 3.0 6.0 0.00 0.00 0.00 74 1015.1
20170626033332 57 335 3.0 7.0 0.00 0.00 0.00 74 1015.1
20170626032833 57 335 2.0 6.0 0.00 0.00 0.00 74 1015.1
20170626032328 57 335 1.0 5.0 0.00 0.00 0.00 74 1015.1
20170626031830 57 335 1.0 2.0 0.00 0.00 0.00 74 1015.1
20170626031331 57 335 1.0 2.0 0.00 0.00 0.00 74 1015.1
20170626030831 57 335 0.0 2.0 0.00 0.00 0.00 74 1015.1
20170626030333 57 335 1.0 2.0 0.00 0.00 0.00 74 1015.1
20170626025832 57 335 1.0 5.0 0.00 0.00 0.00 74 1015.1
20170626025331 57 335 2.0 6.0 0.00 0.00 0.00 74 1015.1
20170626024833 57 335 3.0 8.0 0.00 0.00 0.00 74 1015.1
20170626024329 57 335 3.0 7.0 0.00 0.00 0.00 74 1015.1
20170626023832 57 335 5.0 7.0 0.00 0.00 0.00 74 1015.1
20170626023330 57 335 3.0 8.0 0.00 0.00 0.00 74 1015.1
20170626022831 57 335 4.0 8.0 0.00 0.00 0.00 74 1015.1
20170626022331 57 335 5.0 7.0 0.00 0.00 0.00 74 1015.1
20170626021831 57 335 3.0 7.0 0.00 0.00 0.00 74 1015.1
20170626021333 57 335 3.0 6.0 0.00 0.00 0.00 74 1015.1
20170626020831 57 335 3.0 7.0 0.00 0.00 0.00 74 1015.1
20170626020333 57 335 2.0 7.0 0.00 0.00 0.00 74 1015.1
20170626015832 57 335 3.0 7.0 0.00 0.00 0.00 74 1015.1
20170626015333 57 335 5.0 7.0 0.00 0.00 0.00 74 1015.1
20170626014832 57 335 2.0 7.0 0.00 0.00 0.00 74 1015.1
20170626014332 57 335 3.0 6.0 0.00 0.00 0.00 74 1015.1
20170626013833 57 335 2.0 6.0 0.00 0.00 0.00 74 1015.1
20170626013334 57 335 3.0 6.0 0.00 0.00 0.00 74 1015.1
20170626012833 57 335 2.0 6.0 0.00 0.00 0.00 74 1015.1
20170626012332 57 335 3.0 8.0 0.00 0.00 0.00 74 1015.1
20170626011834 57 335 5.0 8.0 0.00 0.00 0.00 74 1015.1
20170626011332 57 335 6.0 8.0 0.00 0.00 0.00 74 1015.1
20170626010830 57 335 3.0 8.0 0.00 0.00 0.00 74 1015.1
20170626010333 57 335 5.0 8.0 0.00 0.00 0.00 74 1015.1
20170626005833 57 335 3.0 7.0 0.00 0.00 0.00 74 1015.1
20170626005333 57 335 3.0 7.0 0.00 0.00 0.00 74 1015.1
20170626004833 57 335 4.0 8.0 0.00 0.00 0.00 74 1015.1
20170626004330 57 335 3.0 7.0 0.00 0.00 0.00 74 1015.1
20170626003832 57 335 3.0 8.0 0.00 0.00 0.00 74 1015.1
20170626003335 57 335 4.0 7.0 0.00 0.00 0.00 74 1015.1
20170626002833 57 335 5.0 8.0 0.00 0.00 0.00 74 1015.1
20170626002334 57 335 5.0 7.0 0.00 0.00 0.00 74 1015.1
20170626001834 57 335 2.0 6.0 0.00 0.00 0.00 74 1015.1
20170626001333 57 335 3.0 8.0 0.00 0.00 0.00 74 1015.1
20170626000833 57 335 6.0 8.0 0.00 0.00 0.00 74 1015.1
20170626000335 57 335 5.0 8.0 0.00 0.00 0.00 74 1015.1
20170625235830 57 335 5.0 8.0 0.00 0.00 0.00 74 1015.1
20170625235333 57 335 5.0 8.0 0.00 0.00 0.00 74 1015.1
20170625234835 57 335 4.0 7.0 0.00 0.00 0.00 74 1015.1
20170625234330 57 335 5.0 8.0 0.00 0.00 0.00 74 1015.1
20170625233834 57 335 2.0 8.0 0.00 0.00 0.00 74 1015.1
20170625233334 57 335 2.0 7.0 0.00 0.00 0.00 74 1015.1
20170625232834 57 335 2.0 7.0 0.00 0.00 0.00 74 1015.1
20170625232334 57 335 5.0 8.0 0.00 0.00 0.00 74 1015.1
20170625231834 57 335 5.0 8.0 0.00 0.00 0.00 74 1015.1
20170625231331 57 335 4.0 8.0 0.00 0.00 0.00 74 1015.1
20170625230908 57 335 3.0 7.0 0.00 0.00 0.00 74 1015.1
20170625230332 57 335 5.0 7.0 0.00 0.00 0.00 74 1015.1
20170625225834 57 335 3.0 6.0 0.00 0.00 0.00 74 1015.1
20170625225333 57 335 2.0 6.0 0.00 0.00 0.00 74 1015.1
20170625224835 57 335 4.0 8.0 0.00 0.00 0.00 74 1015.1
20170625224331 57 314 5.0 8.0 0.00 0.00 0.00 74 1015.1
20170625223832 57 314 5.0 8.0 0.00 0.00 0.00 74 1015.1
20170625223333 57 306 3.0 7.0 0.00 0.00 0.00 74 1015.1
20170625222831 57 324 3.0 8.0 0.00 0.00 0.00 74 1015.2
20170625221832 57 317 3.0 8.0 0.00 0.00 0.00 73 1015.2
20170625221331 57 323 4.0 8.0 0.00 0.00 0.00 73 1015.2
20170625220832 57 332 4.0 9.0 0.00 0.00 0.00 72 1015.2
20170625220337 57 328 6.0 9.0 0.00 0.00 0.00 72 1015.2
20170625215832 57 322 6.0 9.0 0.00 0.00 0.00 71 1015.2
20170625215332 58 334 5.0 9.0 0.00 0.00 0.00 71 1015.1
20170625214833 58 327 4.0 8.0 0.00 0.00 0.00 71 1015.2
20170625214332 58 333 4.0 8.0 0.00 0.00 0.00 71 1015.2
20170625213832 58 342 4.0 9.0 0.00 0.00 0.00 72 1015.2
20170625213333 58 329 5.0 8.0 0.00 0.00 0.00 72 1015.2
20170625212832 58 323 4.0 8.0 0.00 0.00 0.00 72 1015.1
20170625212331 58 316 4.0 8.0 0.00 0.00 0.00 73 1015.1
20170625211833 58 325 2.0 7.0 0.00 0.00 0.00 73 1015.0
20170625211332 58 336 2.0 8.0 0.00 0.00 0.00 72 1015.1
20170625210832 59 319 6.0 12.0 0.00 0.00 0.00 72 1015.0
20170625210334 59 314 5.0 8.0 0.00 0.00 0.00 71 1015.0
20170625205832 59 310 5.0 8.0 0.00 0.00 0.00 70 1014.9
20170625205332 59 321 5.0 8.0 0.00 0.00 0.00 70 1014.9
20170625204834 59 289 3.0 6.0 0.00 0.00 0.00 70 1014.8
20170625204332 59 301 3.0 8.0 0.00 0.00 0.00 69 1014.7
20170625203832 59 311 5.0 12.0 0.00 0.00 0.00 69 1014.6
20170625203334 59 320 7.0 12.0 0.00 0.00 0.00 68 1014.3
20170625202832 59 320 5.0 8.0 0.00 0.00 0.00 68 1014.3
20170625202332 59 322 5.0 8.0 0.00 0.00 0.00 68 1014.3
20170625201834 59 304 3.0 6.0 0.00 0.00 0.00 68 1014.3
20170625201333 59 286 3.0 7.0 0.00 0.00 0.00 67 1014.3
20170625200833 59 264 1.0 7.0 0.00 0.00 0.00 67 1014.3
20170625200334 60 299 4.0 8.0 0.00 0.00 0.00 67 1014.2
20170625195833 60 308 3.0 7.0 0.00 0.00 0.00 67 1014.2
20170625195332 60 311 3.0 8.0 0.00 0.00 0.00 66 1014.2
20170625194834 60 293 4.0 8.0 0.00 0.00 0.00 66 1014.1
20170625194333 60 306 5.0 12.0 0.00 0.00 0.00 65 1014.2
20170625193833 60 298 4.0 8.0 0.00 0.00 0.00 66 1014.1
20170625193335 60 318 2.0 7.0 0.00 0.00 0.00 66 1014.0
20170625192832 60 317 2.0 6.0 0.00 0.00 0.00 66 1014.0
20170625192333 60 310 4.0 8.0 0.00 0.00 0.00 65 1013.9
20170625191833 60 315 6.0 12.0 0.00 0.00 0.00 64 1013.9
20170625191333 60 295 4.0 13.0 0.00 0.00 0.00 64 1013.9
20170625190833 60 303 7.0 12.0 0.00 0.00 0.00 64 1014.0
20170625190335 60 296 5.0 12.0 0.00 0.00 0.00 64 1014.0
20170625185833 61 304 5.0 9.0 0.00 0.00 0.00 64 1014.0
20170625185333 61 298 3.0 8.0 0.00 0.00 0.00 65 1014.0
20170625184834 61 324 4.0 9.0 0.00 0.00 0.00 65 1013.9
20170625184333 61 318 6.0 9.0 0.00 0.00 0.00 66 1014.0
20170625183834 61 315 4.0 9.0 0.00 0.00 0.00 66 1014.0
20170625183335 61 315 7.0 12.0 0.00 0.00 0.00 65 1014.1
20170625182833 61 323 6.0 13.0 0.00 0.00 0.00 64 1014.2
20170625182333 62 304 6.0 12.0 0.00 0.00 0.00 64 1014.2
20170625181835 62 314 5.0 10.0 0.00 0.00 0.00 64 1014.3
20170625181333 62 302 4.0 12.0 0.00 0.00 0.00 63 1014.1
20170625180833 62 298 5.0 14.0 0.00 0.00 0.00 62 1014.1
20170625180335 62 305 9.0 14.0 0.00 0.00 0.00 61 1014.3
20170625175833 62 309 7.0 13.0 0.00 0.00 0.00 60 1014.2
20170625175334 62 295 7.0 13.0 0.00 0.00 0.00 59 1014.1
20170625174835 63 307 6.0 14.0 0.00 0.00 0.00 60 1014.0
20170625174334 63 316 6.0 12.0 0.00 0.00 0.00 60 1014.0
20170625173833 63 309 6.0 14.0 0.00 0.00 0.00 59 1014.0
20170625173335 63 313 8.0 15.0 0.00 0.00 0.00 60 1013.9
20170625172834 63 306 6.0 14.0 0.00 0.00 0.00 60 1013.9
20170625172334 63 305 7.0 14.0 0.00 0.00 0.00 60 1013.8
20170625171834 63 306 6.0 12.0 0.00 0.00 0.00 60 1013.8
20170625171334 64 290 5.0 12.0 0.00 0.00 0.00 59 1013.8
20170625170834 64 313 6.0 12.0 0.00 0.00 0.00 59 1013.9
20170625170335 64 296 4.0 8.0 0.00 0.00 0.00 59 1013.9
20170625165834 64 296 7.0 13.0 0.00 0.00 0.00 58 1013.7
20170625165334 64 307 4.0 13.0 0.00 0.00 0.00 59 1013.6
20170625164835 64 297 5.0 14.0 0.00 0.00 0.00 58 1013.6
20170625164334 64 296 5.0 14.0 0.00 0.00 0.00 58 1013.6
20170625163834 64 294 7.0 13.0 0.00 0.00 0.00 57 1013.5
20170625163336 64 306 8.0 14.0 0.00 0.00 0.00 55 1013.5
20170625162834 65 297 6.0 15.0 0.00 0.00 0.00 54 1013.6
20170625162335 65 298 7.0 15.0 0.00 0.00 0.00 56 1013.6
20170625161836 65 293 8.0 16.0 0.00 0.00 0.00 54 1013.6
20170625161334 65 294 7.0 14.0 0.00 0.00 0.00 54 1013.6
20170625160834 65 314 6.0 15.0 0.00 0.00 0.00 55 1013.5
20170625160336 65 311 7.0 18.0 0.00 0.00 0.00 55 1013.4
20170625155834 65 320 9.0 14.0 0.00 0.00 0.00 57 1013.3
20170625155335 65 321 8.0 16.0 0.00 0.00 0.00 59 1013.3
20170625154836 65 314 5.0 8.0 0.00 0.00 0.00 60 1013.4
20170625154335 65 287 6.0 10.0 0.00 0.00 0.00 60 1013.5
20170625153835 65 291 5.0 8.0 0.00 0.00 0.00 61 1013.4
20170625153336 65 313 7.0 14.0 0.00 0.00 0.00 60 1013.4
20170625152835 65 314 7.0 13.0 0.00 0.00 0.00 61 1013.4
20170625152335 64 307 7.0 16.0 0.00 0.00 0.00 64 1013.4
20170625151836 64 320 7.0 13.0 0.00 0.00 0.00 66 1013.5
20170625151335 65 317 8.0 14.0 0.00 0.00 0.00 66 1013.5
20170625150835 65 296 8.0 15.0 0.00 0.00 0.00 64 1013.5
20170625150336 65 316 5.0 14.0 0.00 0.00 0.00 64 1013.5
20170625145835 65 287 7.0 13.0 0.00 0.00 0.00 62 1013.6
20170625145335 65 294 5.0 13.0 0.00 0.00 0.00 66 1013.5
20170625144836 64 311 7.0 14.0 0.00 0.00 0.00 66 1013.4
20170625144335 64 315 9.0 18.0 0.00 0.00 0.00 66 1013.5
20170625143835 65 289 9.0 14.0 0.00 0.00 0.00 67 1013.5
20170625143337 65 315 9.0 16.0 0.00 0.00 0.00 66 1013.5
20170625142835 65 309 7.0 13.0 0.00 0.00 0.00 65 1013.5
20170625142336 64 314 8.0 16.0 0.00 0.00 0.00 65 1013.4
20170625141836 64 293 6.0 16.0 0.00 0.00 0.00 64 1013.3
20170625141335 64 303 8.0 20.0 0.00 0.00 0.00 64 1013.4
20170625140835 64 296 9.0 16.0 0.00 0.00 0.00 63 1013.4
20170625140337 64 302 6.0 16.0 0.00 0.00 0.00 68 1013.4
20170625135835 64 333 9.0 15.0 0.00 0.00 0.00 71 1013.4
20170625135336 64 296 7.0 20.0 0.00 0.00 0.00 68 1013.3
20170625134836 64 319 9.0 20.0 0.00 0.00 0.00 69 1013.3
20170625134336 63 296 7.0 15.0 0.00 0.00 0.00 70 1013.2
20170625133835 63 304 6.0 13.0 0.00 0.00 0.00 73 1013.1
20170625133336 63 324 8.0 14.0 0.00 0.00 0.00 72 1013.2
20170625132836 63 315 6.0 13.0 0.00 0.00 0.00 72 1013.2
20170625132336 63 329 6.0 13.0 0.00 0.00 0.00 72 1013.2
20170625131837 63 322 7.0 14.0 0.00 0.00 0.00 72 1013.2
20170625131336 63 329 6.0 13.0 0.00 0.00 0.00 73 1013.2
20170625130835 63 317 7.0 14.0 0.00 0.00 0.00 72 1013.2
20170625130341 63 307 9.0 15.0 0.00 0.00 0.00 70 1013.3
20170625125836 64 311 9.0 14.0 0.00 0.00 0.00 70 1013.2
20170625125336 64 301 7.0 13.0 0.00 0.00 0.00 70 1013.2
20170625124838 64 303 5.0 14.0 0.00 0.00 0.00 70 1013.2
20170625124336 64 328 7.0 14.0 0.00 0.00 0.00 70 1013.2
20170625123337 64 307 7.0 12.0 0.00 0.00 0.00 70 1013.1
20170625122836 64 307 9.0 16.0 0.00 0.00 0.00 69 1013.1
20170625122336 64 309 9.0 15.0 0.00 0.00 0.00 68 1013.1
20170625121838 65 291 7.0 16.0 0.00 0.00 0.00 68 1013.1
20170625121337 65 311 9.0 15.0 0.00 0.00 0.00 67 1013.0
20170625120836 65 328 7.0 14.0 0.00 0.00 0.00 70 1012.9
20170625120338 64 308 7.0 14.0 0.00 0.00 0.00 70 1013.0
20170625115836 65 312 10.0 16.0 0.00 0.00 0.00 70 1012.9
20170625115348 65 304 4.0 14.0 0.00 0.00 0.00 73 1012.8
20170625114838 64 314 7.0 14.0 0.00 0.00 0.00 74 1012.7
20170625114337 64 304 7.0 14.0 0.00 0.00 0.00 74 1012.7
20170625113837 64 295 7.0 14.0 0.00 0.00 0.00 74 1012.7
20170625113338 63 313 5.0 12.0 0.00 0.00 0.00 75 1012.5
20170625112837 63 318 6.0 12.0 0.00 0.00 0.00 75 1012.5
20170625112337 63 321 6.0 12.0 0.00 0.00 0.00 76 1012.4
20170625111838 63 321 5.0 13.0 0.00 0.00 0.00 77 1012.4
20170625111337 63 299 6.0 12.0 0.00 0.00 0.00 77 1012.4
20170625110837 63 316 6.0 12.0 0.00 0.00 0.00 77 1012.4
20170625110338 63 323 6.0 13.0 0.00 0.00 0.00 77 1012.4
20170625105836 64 315 5.0 12.0 0.00 0.00 0.00 77 1012.3
20170625105337 63 293 7.0 12.0 0.00 0.00 0.00 78 1012.3
20170625104838 62 322 5.0 8.0 0.00 0.00 0.00 81 1012.3
20170625104337 61 311 5.0 9.0 0.00 0.00 0.00 82 1012.2
20170625103837 61 326 5.0 8.0 0.00 0.00 0.00 84 1012.3
20170625103339 61 307 4.0 8.0 0.00 0.00 0.00 84 1012.2